Sheridan, IN

6:29 AM EST on January 23, 2017 (GMT -0500)
Indianapolis Terry

Weather History for KTYQ - December, 2013

Change the Weather History Date:

Wednesday, December 18, 2013

  Actual Average (KEYE) Record (KEYE)
Temperature  
Mean Temperature 24 °F -  
Max Temperature 37 °F 35 °F 57 °F (2002)
Min Temperature 10 °F 21 °F 3 °F (2000)
Degree Days  
Heating Degree Days 42    
Moisture  
Dew Point 13 °F    
Average Humidity 62    
Maximum Humidity 85    
Minimum Humidity 39    
Precipitation  
Precipitation 0.00 in - - ()
Sea Level Pressure  
Sea Level Pressure 30.12 in    
Wind  
Wind Speed 8 mph (SW)    
Max Wind Speed 17 mph    
Max Gust Speed 23 mph    
Visibility 10 miles    
Events      
Averages and records for this station are not official NWS values.
T = Trace of Precipitation, MM = Missing Value Source: NWS Daily Summary

Daily Weather History Graph

Daily Weather History Graph

Search for Another Location

Airport or City:

Trip Planner

Search our weather history database for the weather conditions in past years. The results will help you decide how hot, cold, wet, or windy it might be!

Date:

Astronomy

Dec. 18, 2013 Rise Set
Actual Time 8:01 AM EST 5:21 PM EST
Civil Twilight 7:31 AM EST 5:52 PM EST
Nautical Twilight 6:57 AM EST 6:26 PM EST
Astronomical Twilight 6:24 AM EST 6:59 PM EST
Moon 6:53 PM EST (12/18) 8:41 AM EST (12/18)
Length of Visible Light 10h 21m
Length of Day
9h 19m
Full, 98% of the Moon is Illuminated
Dec 18
Full
Dec 25
Last Quarter
Jan 1
New
Jan 7
First Quarter
Jan 15
Full

Hourly Weather History & Observations

Time (EST) Temp. Windchill Dew Point Humidity Pressure Visibility Wind Dir Wind Speed Gust Speed Precip Events Conditions
12:15 AM 21.6 °F 12.1 °F 17.2 °F 83% 30.13 in 10.0 mi West 8.1 mph - N/A   Clear
12:35 AM 21.4 °F 11.9 °F 16.9 °F 83% 30.14 in 10.0 mi West 8.1 mph - N/A   Clear
12:55 AM 20.8 °F 11.2 °F 16.7 °F 84% 30.13 in 7.0 mi WSW 8.1 mph - N/A   Clear
1:15 AM 20.8 °F 10.4 °F 16.9 °F 85% 30.13 in 10.0 mi West 9.2 mph - N/A   Clear
1:35 AM 21.4 °F 11.1 °F 16.3 °F 81% 30.13 in 10.0 mi West 9.2 mph - N/A   Mostly Cloudy
1:55 AM 21.6 °F 12.1 °F 15.3 °F 77% 30.14 in 10.0 mi WSW 8.1 mph - N/A   Overcast
2:15 AM 21.2 °F 12.6 °F 14.9 °F 77% 30.14 in 10.0 mi WSW 6.9 mph - N/A   Overcast
2:35 AM 20.1 °F 10.3 °F 13.8 °F 77% 30.14 in 10.0 mi West 8.1 mph - N/A   Scattered Clouds
2:55 AM 19.0 °F 10.0 °F 12.7 °F 76% 30.15 in 10.0 mi WSW 6.9 mph - N/A   Clear
3:15 AM 18.5 °F 9.3 °F 12.2 °F 76% 30.15 in 10.0 mi WSW 6.9 mph - N/A   Clear
3:35 AM 17.6 °F 9.3 °F 11.3 °F 76% 30.15 in 10.0 mi West 5.8 mph - N/A   Clear
3:55 AM 17.1 °F 6.6 °F 11.1 °F 77% 30.15 in 10.0 mi WSW 8.1 mph - N/A   Clear
4:15 AM 16.7 °F 7.2 °F 10.8 °F 77% 30.16 in 10.0 mi WSW 6.9 mph - N/A   Clear
4:35 AM 16.5 °F 6.9 °F 10.4 °F 77% 30.16 in 10.0 mi West 6.9 mph - N/A   Clear
4:55 AM 16.5 °F 6.9 °F 10.4 °F 77% 30.16 in 10.0 mi West 6.9 mph - N/A   Clear
5:15 AM 15.8 °F 7.2 °F 9.7 °F 77% 30.17 in 10.0 mi WSW 5.8 mph - N/A   Clear
5:35 AM 13.8 °F 8.0 °F 8.6 °F 80% 30.17 in 10.0 mi WSW 3.5 mph - N/A   Clear
5:55 AM 12.0 °F 2.7 °F 7.3 °F 81% 30.18 in 10.0 mi WSW 5.8 mph - N/A   Clear
6:15 AM 13.1 °F 2.8 °F 8.6 °F 82% 30.18 in 10.0 mi WSW 6.9 mph - N/A   Clear
6:35 AM 14.0 °F 5.1 °F 9.1 °F 81% 30.18 in 10.0 mi WSW 5.8 mph - N/A   Clear
6:55 AM 12.2 °F 2.9 °F 7.5 °F 82% 30.18 in 10.0 mi WSW 5.8 mph - N/A   Clear
7:15 AM 11.7 °F 2.3 °F 7.0 °F 81% 30.19 in 10.0 mi WSW 5.8 mph - N/A   Clear
7:35 AM 12.2 °F 4.3 °F 7.9 °F 83% 30.20 in 10.0 mi WSW 4.6 mph - N/A   Clear
7:55 AM 11.5 °F 2.1 °F 6.8 °F 81% 30.21 in 10.0 mi WSW 5.8 mph - N/A   Clear
8:15 AM 10.4 °F -0.4 °F 6.1 °F 83% 30.21 in 10.0 mi SW 6.9 mph - N/A   Clear
8:35 AM 12.9 °F 2.6 °F 7.9 °F 80% 30.22 in 10.0 mi WSW 6.9 mph - N/A   Clear
8:55 AM 15.4 °F 4.6 °F 9.5 °F 77% 30.22 in 10.0 mi WSW 8.1 mph - N/A   Clear
9:15 AM 16.5 °F 6.9 °F 9.9 °F 75% 30.22 in 10.0 mi WSW 6.9 mph - N/A   Clear
9:35 AM 18.3 °F 7.3 °F 10.6 °F 72% 30.22 in 10.0 mi WSW 9.2 mph - N/A   Clear
9:55 AM 19.6 °F 8.9 °F 11.1 °F 70% 30.23 in 10.0 mi WSW 9.2 mph - N/A   Clear
10:15 AM 20.8 °F 10.4 °F 11.5 °F 67% 30.23 in 10.0 mi WSW 9.2 mph - N/A   Clear
10:35 AM 22.1 °F 13.7 °F 12.2 °F 66% 30.23 in 10.0 mi WSW 6.9 mph - N/A   Clear
10:55 AM 23.2 °F 15.0 °F 12.6 °F 64% 30.23 in 10.0 mi WSW 6.9 mph - N/A   Clear
11:15 AM 24.3 °F 13.9 °F 12.7 °F 62% 30.23 in 10.0 mi WSW 10.4 mph - N/A   Clear
11:35 AM 25.3 °F 16.7 °F 13.3 °F 60% 30.23 in 10.0 mi WSW 8.1 mph - N/A   Clear
11:55 AM 26.6 °F 19.1 °F 13.8 °F 59% 30.23 in 10.0 mi WSW 6.9 mph - N/A   Clear
12:15 PM 27.3 °F 19.1 °F 14.2 °F 58% 30.22 in 10.0 mi SW 8.1 mph - N/A   Clear
12:35 PM 28.2 °F 21.0 °F 14.2 °F 56% 30.22 in 10.0 mi SSW 6.9 mph - N/A   Clear
12:55 PM 29.3 °F 20.8 °F 14.2 °F 53% 30.21 in 10.0 mi SW 9.2 mph - N/A   Clear
1:15 PM 30.4 °F 23.6 °F 13.8 °F 50% 30.19 in 10.0 mi SSW 6.9 mph - N/A   Clear
1:35 PM 31.6 °F 26.0 °F 13.3 °F 47% 30.19 in 10.0 mi SSW 5.8 mph - N/A   Clear
1:55 PM 32.0 °F 24.8 °F 10.6 °F 41% 30.17 in 10.0 mi SSW 8.1 mph - N/A   Clear
2:15 PM 32.9 °F 25.3 °F 11.7 °F 41% 30.16 in 10.0 mi SSW 9.2 mph - N/A   Clear
2:35 PM 32.9 °F 25.9 °F 12.2 °F 42% 30.15 in 10.0 mi South 8.1 mph - N/A   Clear
2:55 PM 33.4 °F 26.6 °F 12.2 °F 42% 30.14 in 10.0 mi South 8.1 mph - N/A   Clear
3:15 PM 34.0 °F 25.5 °F 11.8 °F 40% 30.14 in 10.0 mi South 11.5 mph - N/A   Clear
3:35 PM 34.3 °F 27.0 °F 12.4 °F 40% 30.12 in 10.0 mi SSE 9.2 mph - N/A   Clear
3:55 PM 34.2 °F 25.2 °F 13.1 °F 42% 30.11 in 10.0 mi South 12.7 mph - N/A   Clear
4:15 PM 33.8 °F 26.4 °F 12.9 °F 42% 30.10 in 10.0 mi South 9.2 mph - N/A   Clear
4:35 PM 34.3 °F 25.9 °F 11.5 °F 39% 30.08 in 10.0 mi South 11.5 mph 17.3 mph N/A   Clear
4:55 PM 33.8 °F 25.8 °F 12.6 °F 42% 30.07 in 10.0 mi SSE 10.4 mph - N/A   Clear
5:15 PM 32.7 °F 24.5 °F 13.8 °F 46% 30.06 in 10.0 mi SSE 10.4 mph - N/A   Clear
5:35 PM 32.2 °F 23.2 °F 14.5 °F 48% 30.04 in 10.0 mi SSE 11.5 mph 17.3 mph N/A   Clear
5:55 PM 32.0 °F 23.6 °F 14.5 °F 49% 30.03 in 10.0 mi SSE 10.4 mph - N/A   Clear
6:15 PM 31.6 °F 22.1 °F 15.6 °F 52% 30.03 in 10.0 mi SSE 12.7 mph - N/A   Clear
6:35 PM 31.6 °F 22.6 °F 16.2 °F 53% 30.02 in 10.0 mi SSE 11.5 mph - N/A   Clear
6:55 PM 32.2 °F 23.2 °F 15.3 °F 50% 30.02 in 10.0 mi South 11.5 mph - N/A   Clear
7:15 PM 32.4 °F 23.0 °F 14.9 °F 49% 30.02 in 10.0 mi South 12.7 mph - N/A   Clear
7:35 PM 32.4 °F 22.5 °F 15.4 °F 50% 30.01 in 10.0 mi South 13.8 mph 19.6 mph N/A   Clear
7:55 PM 32.7 °F 23.4 °F 15.4 °F 49% 30.01 in 10.0 mi South 12.7 mph - N/A   Clear
8:15 PM 32.5 °F 24.8 °F 15.3 °F 49% 30.00 in 10.0 mi South 9.2 mph - N/A   Clear
8:35 PM 32.2 °F 23.2 °F 15.4 °F 50% 29.99 in 10.0 mi South 11.5 mph - N/A   Clear
8:55 PM 32.5 °F 23.7 °F 15.8 °F 50% 29.99 in 10.0 mi South 11.5 mph - N/A   Clear
9:15 PM 33.3 °F 23.7 °F 15.8 °F 49% 29.98 in 10.0 mi South 13.8 mph - N/A   Clear
9:35 PM 33.1 °F 24.9 °F 16.2 °F 50% 29.98 in 10.0 mi South 10.4 mph - N/A   Clear
9:55 PM 33.4 °F 24.8 °F 15.8 °F 48% 29.98 in 10.0 mi SSW 11.5 mph - N/A   Clear
10:15 PM 34.9 °F 26.2 °F 16.2 °F 46% 29.98 in 10.0 mi SSW 12.7 mph 19.6 mph N/A   Clear
10:35 PM 35.8 °F 26.1 °F 16.3 °F 45% 29.98 in 10.0 mi SSW 16.1 mph 21.9 mph N/A   Clear
10:55 PM 36.5 °F 27.4 °F 16.5 °F 44% 29.98 in 10.0 mi SSW 15.0 mph 23.0 mph N/A   Clear
11:15 PM 36.7 °F 27.2 °F 16.5 °F 44% 29.98 in 10.0 mi SSW 16.1 mph 21.9 mph N/A   Clear
11:35 PM 37.0 °F 27.4 °F 16.9 °F 44% 29.98 in 10.0 mi SSW 17.3 mph 21.9 mph N/A   Clear
11:55 PM 36.9 °F 28.2 °F 17.6 °F 46% 29.98 in 10.0 mi SSW 13.8 mph 20.7 mph N/A   Clear